logo
Search for airport 
image banner adimage banner adimage banner ad
image banner ad

LKPP - Predni Kopanina

Located in , Czech Republic

ICAO - , IATA -

Data provided by Airmate  

General information

Coordinates: N50°7'10" E14°18'11"
Elevation is 1125 feet MSL.
 
View others Airports in Prague (capital city)

Operational data

Special qualification required
Current time UTC:
Current local time:
Weather at : LKPR - Praha/Ruzyne ( 4 km )
METAR: LKPR 201200Z VRB02KT 9999 FEW033TCU 21/12 Q1012 NOSIG
View NOTAMs / SUP AIP / TFR affecting this airport [VIEW]
Communications frequencies: [VIEW]

Runways:

Airport contact information

Address: Czech Republic

Satellite view of LKPP